Valladolid Airport, Spain

2:30 AM CET on February 23, 2018 (GMT +0100)
Villanubla

Weather History for LEVD - May, 2013

Change the Weather History Date:

Friday, May 3, 2013

  Actual Average Record
Temperature  
Mean Temperature 45 °F -  
Max Temperature 57 °F - - ()
Min Temperature 33 °F - - ()
Degree Days  
Heating Degree Days 20    
Moisture  
Dew Point 38 °F    
Average Humidity 64    
Maximum Humidity 93    
Minimum Humidity 48    
Precipitation  
Precipitation 0.00 in - - ()
Sea Level Pressure  
Sea Level Pressure 30.13 in    
Wind  
Wind Speed 6 mph ()    
Max Wind Speed 12 mph    
Max Gust Speed -    
Visibility 6.2 miles    
Events      
T = Trace of Precipitation, MM = Missing Value Source: Averaged Metar Reports

Daily Weather History Graph

Daily Weather History Graph

Search for Another Location

Airport or City:

Trip Planner

Search our weather history database for the weather conditions in past years. The results will help you decide how hot, cold, wet, or windy it might be!

Date:

Astronomy

May. 03, 2013 Rise Set
Actual Time 7:13 AM CEST 9:19 PM CEST
Civil Twilight 6:42 AM CEST 9:50 PM CEST
Nautical Twilight 6:05 AM CEST 10:27 PM CEST
Astronomical Twilight 5:24 AM CEST 11:09 PM CEST
Moon 3:35 AM CEST (5/3) 2:54 PM CEST (5/3)
Length of Visible Light 15h 07m
Length of Day
14h 06m
Last Quarter, 40% of the Moon is Illuminated
May 3
Last Quarter
May 10
New
May 18
First Quarter
May 25
Full
May 31
Last Quarter

Hourly Weather History & Observations

Time (CEST) Temp. Windchill Dew Point Humidity Pressure Visibility Wind Dir Wind Speed Gust Speed Precip Events Conditions
7:00 AM 33.8 °F 28.6 °F 32.0 °F 93% 30.12 in - East 5.8 mph - N/A   Clear
7:30 AM 33.8 °F 27.7 °F 32.0 °F 93% 30.12 in 6.2 mi ENE 6.9 mph - N/A   Partly Cloudy
8:00 AM 35.6 °F 31.7 °F 33.8 °F 93% 30.15 in 6.2 mi ENE 4.6 mph - N/A   Partly Cloudy
8:30 AM 39.2 °F 35.9 °F 33.8 °F 81% 30.15 in 6.2 mi ENE 4.6 mph - N/A   Partly Cloudy
9:00 AM 41.0 °F 37.1 °F 35.6 °F 81% 30.15 in - ENE 5.8 mph - N/A   Clear
9:30 AM 42.8 °F 37.5 °F 35.6 °F 76% 30.15 in - ENE 9.2 mph - N/A   Clear
10:00 AM 44.6 °F 39.2 °F 33.8 °F 66% 30.15 in - ENE 10.4 mph - N/A   Clear
10:30 AM 46.4 °F 41.1 °F 35.6 °F 66% 30.15 in - ENE 11.5 mph - N/A   Clear
11:00 AM 48.2 °F - 37.4 °F 66% 30.15 in - ENE 9.2 mph - N/A   Clear
11:30 AM 48.2 °F - 37.4 °F 66% 30.18 in - ENE 11.5 mph - N/A   Clear
12:00 PM 48.2 °F - 37.4 °F 66% 30.18 in 6.2 mi ENE 11.5 mph - N/A   Partly Cloudy
12:30 PM 50.0 °F - 37.4 °F 62% 30.18 in 6.2 mi East 9.2 mph - N/A   Partly Cloudy
1:00 PM 51.8 °F - 39.2 °F 62% 30.15 in 6.2 mi ENE 9.2 mph - N/A   Partly Cloudy
1:30 PM 51.8 °F - 37.4 °F 58% 30.15 in 6.2 mi East 9.2 mph - N/A   Scattered Clouds
2:00 PM 53.6 °F - 37.4 °F 54% 30.15 in 6.2 mi ENE 6.9 mph - N/A   Scattered Clouds
2:30 PM 53.6 °F - 39.2 °F 58% 30.15 in 6.2 mi ENE 6.9 mph - N/A   Scattered Clouds
3:00 PM 55.4 °F - 41.0 °F 58% 30.15 in 6.2 mi NE 3.5 mph - N/A   Scattered Clouds
3:30 PM 55.4 °F - 39.2 °F 54% 30.15 in 6.2 mi East 5.8 mph - N/A   Scattered Clouds
4:00 PM 57.2 °F - 41.0 °F 55% 30.12 in 6.2 mi ENE 4.6 mph - N/A   Scattered Clouds
4:30 PM 57.2 °F - 39.2 °F 51% 30.12 in 6.2 mi East 8.1 mph - N/A   Scattered Clouds
5:00 PM 57.2 °F - 39.2 °F 51% 30.12 in 6.2 mi ENE 5.8 mph - N/A   Scattered Clouds
5:30 PM 57.2 °F - 41.0 °F 55% 30.12 in 6.2 mi ENE 8.1 mph - N/A   Scattered Clouds
6:00 PM 57.2 °F - 41.0 °F 55% 30.09 in 6.2 mi East 5.8 mph - N/A   Partly Cloudy
6:30 PM 57.2 °F - 37.4 °F 48% 30.09 in 6.2 mi ENE 5.8 mph - N/A   Partly Cloudy
7:00 PM 57.2 °F - 37.4 °F 48% 30.09 in 6.2 mi NE 6.9 mph - N/A   Partly Cloudy
7:30 PM 57.2 °F - 37.4 °F 48% 30.09 in 6.2 mi NE 5.8 mph - N/A   Partly Cloudy
8:00 PM 55.4 °F - 39.2 °F 54% 30.09 in 6.2 mi ENE 9.2 mph - N/A   Partly Cloudy
8:30 PM 55.4 °F - 41.0 °F 58% 30.09 in 6.2 mi NE 4.6 mph - N/A   Partly Cloudy
9:00 PM 51.8 °F - 41.0 °F 67% 30.09 in 6.2 mi NE 4.6 mph - N/A   Partly Cloudy
9:30 PM 50.0 °F - 41.0 °F 71% 30.09 in - ENE 3.5 mph - N/A   Clear